OneWeb SL0083

operational
NORAD ID: 45435 Int'l Des: 2020-020 Owner: ONEWEB Country: UK Constellation: oneweb
LEOCIRCULARPOLARONEWEB_TYPE

About OneWeb SL0083

Description loading...

Live Position

Loading 3D Globe...

Upcoming Passes

Altitude History

Altitude vs Time

uPlot chart will show altitude changes over time

Two-Line Element Set

1 45435U 20020M 26065.36054213 -.00000015 00000-0 -79468-4 0 9994
2 45435 87.8867 41.4989 0001888 85.0398 275.0946 13.11418005289196
Epoch: Mar 6, 2026 • Age: 40 hours

Current Status

Altitude 1220.8 km
Velocity 7.24 km/s
Sub-Earth Point -2.83°S, 0.75°W
Launch Date Mar 21, 2020
Age 5.9 years
Type internet

Technical Details

Classification Payload
Mass 148.00 kg
Dry Mass 140.00 kg
Total Mass 148.00 kg
Length 1.30 m
Diameter 1.00 m
Span 5.00 m
Shape Trapezoid+2 pan
Manufacturer ONEWUS
Bus Type ARROW
Phase Status In Orbit
Owner/State ONEWEB/UK

Large Constellations

Loading constellations...